Location: Boone Canyon
(38.3180°N, 119.2504°W)
Time: 17:45:32
(UTC+00:00)

FALCON 9 DEB - Pass Details

Date: 18 September 2020
Orbit: 426 x 441 km, 53.0° (Epoch: 19 October)

Event Time Altitude Azimuth Distance (km) Brightness Sun altitude
Exits shadow 12:44:37 13° 218° (SW) 1,339 5.1 -11.9°
Maximum altitude 12:47:33 68° 136° (SE) 462 3.3 -11.4°
Drops below altitude 10° 12:50:58 10° 53° (NE) 1,529 7.0 -10.7°
Sets 12:53:05 0° 51° (NE) 2,401 8.1 -10.3°
